Погода в Нерюнгри

Россия / Республика Саха (Якутия)     56°39′35″N   124°43′13″E
темп.,
°C
ветер,
м/с
пор.,
м/с
влажн.,
%
обл.,
%
осадки,
мм/ч
давл.,
гПа
погр.,
м
9 декабря, чт
чт900:00−14ююв2996100 0.0 1016263
03:00−12ююв31095100 1.1 1013370
06:00−12ююв3994100 0.9 1012357
09:00−13ю1396100 1.8 1015163
12:00−9сз51383100 0.4 10161215
15:00−12ссз51286100 0.4 10201014
18:00−17с2395100 0.0 102655
21:00−21сз229988 0.1 103025
10 декабря, пт
пт1000:00−26з1110031 0.0 10349
03:00−29зюз1110069 0.0 10369
06:00−30ююз1110092 0.0 10379
09:00−32ююз1110093 0.0 10399
12:00−23в1197100 0.0 103466
15:00−22в119859 0.0 10339
18:00−30ююз0010067 0.0 10379
21:00−33ююв0010082 0.0 10389
11 декабря, сб
сб1100:00−35ююв0010085 0.0 10399
03:00−35св00100100 0.0 103810
06:00−29св1199100 0.0 103534
09:00−27всв1197100 0.0 103437
12:00−24ссв1191100 0.0 1031108
15:00−22ссв1296100 0.1 1030152
18:00−22ссз1399100 0.3 1030162
21:00−23сз2398100 0.4 103057
12 декабря, вс
вс1200:00−22ссз21098100 0.0 1030353
03:00−21ссз41092100 0.1 1029493
06:00−22ссз3109299 0.0 1029553
09:00−29сз2210079 0.0 103217
12:00−24ссз139871 0.0 1029150
15:00−26с119921 0.0 10289
18:00−35з1010069 0.0 10319
21:00−37ю1110093 0.0 10309
13 декабря, пн
пн1300:00−39ююв1110099 0.0 10289
03:00−34вюв11100100 0.0 102425
06:00−35всв0110099 0.0 10229
09:00−32вюв1198100 0.0 102123
12:00−27вюв1190100 0.0 1018116
15:00−24в1189100 0.0 101794
18:00−30ссз1198100 0.0 10229
21:00−31сз0010098 0.0 10249